User: anonymous
Location: Slidell
(30.2789°N, 89.7378°W)
Time: 00:32:58
(UTC-05:00)
Language:

Cosmos 2360 Rocket - Orbit

View from above orbital plane
View from above orbital plane
View from above satellite
View from above satellite

Ground track
Ground track

The orbit data is extracted from the following two-line orbital elements,

1 25407U 98045B   14107.87592534 -.00000173  00000-0 -64154-4 0  4442
2 25407 071.0118 311.1854 0007407 186.4723 266.2225 14.15655666812539
Epoch (UTC): 17 April 2014 21:01:19
Eccentricity: 0.0007407
inclination: 71.0118°
perigee height: 835 km
apogee height: 845 km
right ascension of ascending node: 311.1854°
argument of perigee: 186.4723°
revolutions per day: 14.15655666
mean anomaly at epoch: 266.2225°
orbit number at epoch: 81253

The dashed part of the orbit path shows where the satellite is in the earth's shadow,  

DLR